Waarnemingen

Advertentie
Mijn weer
Twenthe, Nederland (6290): temperatuur & dauwpunt: 08.08.2018 17:00:00 - 14.08.2018 17:00:00 (CEST)Twenthe, Nederland (6290): temperatuur 5cm: 08.08.2018 17:00:00 - 14.08.2018 17:00:00 (CEST)Twenthe, Nederland (6290): windsnelheid & windstoten: 08.08.2018 17:00:00 - 14.08.2018 17:00:00 (CEST)Twenthe, Nederland (6290): windrichting: 08.08.2018 17:00:00 - 14.08.2018 17:00:00 (CEST)Twenthe, Nederland (6290): luchtdruk: 08.08.2018 17:00:00 - 14.08.2018 17:00:00 (CEST)Twenthe, Nederland (6290): zicht: 08.08.2018 17:00:00 - 14.08.2018 17:00:00 (CEST)Twenthe, Nederland (6290): neerslag: 08.08.2018 17:00:00 - 14.08.2018 17:00:00 (CEST)
Datum & Tijd tt [°C] td [°C] tt 5cm [°C] ff [km/u] ff [kn] fx [km/u] fx [kn] dd ppp [hPa] vv [km] rr [mm]
14.08.2018 17:00:00 23,0 13,3 24,8 22 12 - - NW 1014,8 37 0,0
14.08.2018 16:00:00 22,7 12,5 22,7 25 14 40 21 WNW 1014,5 43 0,0
14.08.2018 15:00:00 22,8 13,1 22,9 25 14 40 21 W 1013,9 34 0,0
14.08.2018 14:00:00 21,6 13,1 22,3 22 12 40 21 W 1013,4 37 0,0
14.08.2018 13:00:00 21,1 15,2 20,4 18 10 40 21 W 1013,0 35 0,0
14.08.2018 12:00:00 18,0 14,9 18,2 25 14 40 21 W 1012,7 14 0,0
14.08.2018 11:00:00 18,4 14,7 18,7 22 12 40 21 W 1011,8 26 0,0
14.08.2018 10:00:00 18,8 15,4 19,1 22 12 36 19 W 1011,1 32 0,0
14.08.2018 09:00:00 17,7 16,0 17,5 22 12 32 18 W 1010,4 36 0,0
14.08.2018 08:00:00 17,5 16,1 17,4 22 12 32 18 W 1009,7 21 0,0
14.08.2018 07:00:00 17,2 16,0 17,0 18 10 29 16 WZW 1009,0 8 0,0
14.08.2018 06:00:00 17,0 15,9 16,7 18 10 29 16 ZW 1008,4 5 0,0
14.08.2018 05:00:00 16,5 15,6 16,3 14 8 22 12 ZW 1008,3 4,9 0,0
14.08.2018 04:00:00 16,7 15,5 16,5 14 8 29 16 ZW 1008,4 6 0,0
14.08.2018 03:00:00 16,7 15,4 16,4 14 8 29 16 ZW 1008,1 7 0,0
14.08.2018 02:00:00 16,0 15,3 15,5 11 6 18 10 ZZW 1008,2 5 0,0
14.08.2018 01:00:00 15,5 14,7 14,9 11 6 18 10 ZZW 1008,0 8 0,0
14.08.2018 00:00:00 16,0 14,9 15,4 14 8 18 10 ZW 1007,8 10 0,0
13.08.2018 23:00:00 16,7 15,3 16,1 11 6 18 10 ZW 1007,3 13 0,0
13.08.2018 22:00:00 17,1 15,6 16,7 14 8 22 12 ZW 1007,0 17 0,0
13.08.2018 21:00:00 17,5 15,7 17,0 11 6 25 14 ZW 1006,6 19 0,0
13.08.2018 20:00:00 18,7 15,4 18,4 18 10 29 16 WZW 1005,8 40 0,0
13.08.2018 19:00:00 19,6 15,1 20,8 11 6 18 10 ZZW 1005,9 40 0,0
13.08.2018 18:00:00 17,8 13,1 17,8 11 6 36 19 W 1006,0 45 0,0
13.08.2018 17:00:00 19,6 16,2 19,9 14 8 29 16 ZW 1005,7 45 0,0
13.08.2018 16:00:00 19,4 16,6 19,2 7 4 29 16 WZW 1005,4 30 0,0
13.08.2018 15:00:00 21,7 15,9 22,4 22 12 40 21 ZZW 1005,2 35 0,0
13.08.2018 14:00:00 22,1 16,2 24,2 22 12 36 19 Z 1005,5 30 0,0
13.08.2018 13:00:00 20,9 15,9 22,2 22 12 36 19 Z 1005,8 30 0,0
13.08.2018 12:00:00 20,7 15,4 21,7 22 12 32 18 Z 1006,3 44 0,0
13.08.2018 11:00:00 19,9 15,4 20,2 18 10 25 14 Z 1006,2 36 0,0
13.08.2018 10:00:00 18,3 14,5 18,2 14 8 22 12 Z 1006,0 31 0,0
13.08.2018 09:00:00 18,1 12,6 17,6 7 4 18 10 ZO 1005,6 42 0,0
13.08.2018 08:00:00 19,5 9,7 18,7 14 8 25 14 Z 1006,1 47 0,0
13.08.2018 07:00:00 18,1 10,8 17,1 7 4 11 6 ZO 1005,7 48 0,0
13.08.2018 06:00:00 18,4 10,3 16,5 7 4 11 6 ZO 1005,8 49 0,0
13.08.2018 05:00:00 18,2 11,4 17,1 7 4 11 6 ZZO 1006,5 50 0,0
13.08.2018 04:00:00 18,8 10,7 16,8 7 4 11 6 ZO 1006,7 48 0,0
13.08.2018 03:00:00 18,8 11,1 17,1 7 4 11 6 ZO 1007,4 50 0,0
13.08.2018 02:00:00 18,8 11,8 17,3 7 4 11 6 ZO 1007,9 48 0,0
13.08.2018 01:00:00 17,6 13,1 15,0 7 4 7 4 ZO 1008,5 50 0,0
13.08.2018 00:00:00 17,7 13,5 15,9 4 2 7 4 N 1008,9 50 0,0
12.08.2018 23:00:00 18,4 13,9 16,4 4 2 4 2 ONO 1009,8 50 0,0
12.08.2018 22:00:00 18,9 13,5 16,8 4 2 7 4 NNO 1010,0 50 0,0
12.08.2018 21:00:00 20,5 13,8 18,4 0 0 7 4 N 1010,2 50 0,0
12.08.2018 20:00:00 23,9 12,1 23,1 7 4 18 10 Z 1010,5 50 0,0
12.08.2018 19:00:00 25,9 11,5 26,4 14 8 25 14 Z 1011,0 46 0,0
12.08.2018 18:00:00 26,1 11,7 26,9 14 8 25 14 Z 1011,6 47 0,0
12.08.2018 17:00:00 26,0 12,2 27,3 11 6 29 16 ZZW 1012,2 39 0,0
12.08.2018 16:00:00 25,9 12,0 27,3 14 8 29 16 ZZW 1013,2 40 0,0
12.08.2018 15:00:00 25,9 12,0 28,4 18 10 32 18 ZW 1013,9 47 0,0
12.08.2018 14:00:00 24,7 12,0 27,7 14 8 29 16 Z 1014,7 30 0,0
12.08.2018 13:00:00 23,2 11,7 25,2 18 10 29 16 ZZW 1015,3 41 0,0
12.08.2018 12:00:00 22,3 10,4 23,5 14 8 25 14 ZZW 1016,0 45 0,0
12.08.2018 11:00:00 20,2 9,7 21,6 11 6 22 12 ZZW 1016,4 38 0,0
12.08.2018 10:00:00 18,1 9,4 19,1 14 8 22 12 ZZW 1016,6 37 0,0
12.08.2018 09:00:00 16,3 8,8 16,4 11 6 18 10 Z 1017,0 39 0,0
12.08.2018 08:00:00 15,4 8,7 15,1 11 6 14 8 Z 1017,2 45 0,0
12.08.2018 07:00:00 13,4 8,6 12,4 11 6 18 10 ZZO 1017,5 49 0,0
12.08.2018 06:00:00 11,3 8,4 9,1 11 6 14 8 ZZO 1017,9 46 0,0
12.08.2018 05:00:00 10,3 8,0 6,0 7 4 11 6 ZZO 1018,4 50 0,0
12.08.2018 04:00:00 8,8 8,5 2,2 4 2 4 2 OZO 1019,2 39 0,0
12.08.2018 03:00:00 9,2 9,1 3,5 4 2 4 2 ZO 1019,7 28 0,0
12.08.2018 02:00:00 9,2 8,6 4,2 0 0 4 2 N 1020,2 18 0,0
12.08.2018 01:00:00 10,0 9,2 4,9 0 0 4 2 N 1020,7 10 0,0
12.08.2018 00:00:00 9,5 8,8 3,8 4 2 4 2 ZO 1021,2 42 0,0
11.08.2018 23:00:00 10,9 8,7 4,5 0 0 4 2 N 1021,6 46 0,0
11.08.2018 22:00:00 13,1 8,5 7,1 0 0 11 6 N 1021,8 50 0,0
11.08.2018 21:00:00 16,2 7,7 14,2 7 4 22 12 W 1021,6 50 0,0
11.08.2018 20:00:00 19,3 7,2 19,2 14 8 29 16 W 1021,4 46 0,0
11.08.2018 19:00:00 20,6 7,3 20,3 18 10 36 19 W 1021,6 46 0,0
11.08.2018 18:00:00 20,8 7,7 20,3 18 10 32 18 W 1021,4 48 0,0
11.08.2018 17:00:00 20,1 6,4 21,3 22 12 40 21 W 1021,6 44 0,0
11.08.2018 16:00:00 21,3 6,9 20,2 22 12 36 19 W 1021,5 49 0,0
11.08.2018 15:00:00 21,6 9,3 21,5 22 12 36 19 W 1021,4 37 0,0
11.08.2018 14:00:00 19,9 9,1 19,1 22 12 40 21 W 1021,5 43 0,0
11.08.2018 13:00:00 19,8 9,4 21,4 29 16 47 25 W 1021,5 33 0,0
11.08.2018 12:00:00 18,7 11,2 18,2 25 14 47 25 WZW 1021,5 38 0,0
11.08.2018 11:00:00 18,3 10,7 17,6 25 14 43 23 W 1021,3 39 0,0
11.08.2018 10:00:00 16,7 11,8 17,3 25 14 32 18 WZW 1021,1 35 0,0
11.08.2018 09:00:00 14,8 12,4 15,0 18 10 29 16 WZW 1020,6 21 0,0
11.08.2018 08:00:00 13,3 12,1 13,1 18 10 29 16 ZW 1020,2 12 0,0
11.08.2018 07:00:00 12,2 11,5 12,0 14 8 29 16 ZW 1019,7 9 0,0
11.08.2018 06:00:00 12,0 11,3 11,2 18 10 29 16 ZZW 1019,2 11 0,0
11.08.2018 05:00:00 11,5 10,3 10,9 11 6 22 12 ZW 1019,0 50 0,0
11.08.2018 04:00:00 12,5 11,6 12,0 11 6 22 12 ZZW 1018,9 50 0,0
11.08.2018 03:00:00 12,6 11,6 12,4 11 6 29 16 Z 1018,8 17 0,0
11.08.2018 02:00:00 12,7 11,8 12,7 18 10 40 21 W 1019,3 7 0,0
11.08.2018 01:00:00 18,2 9,2 17,6 18 10 29 16 WZW 1018,5 50 0,0
11.08.2018 00:00:00 18,4 9,0 17,5 14 8 29 16 ZZW 1018,4 46 0,0
10.08.2018 23:00:00 18,8 8,4 17,6 11 6 25 14 ZZW 1018,5 49 0,0
10.08.2018 22:00:00 19,4 7,7 18,5 14 8 25 14 Z 1018,6 50 0,0
10.08.2018 21:00:00 18,2 8,1 16,9 11 6 22 12 Z 1018,8 50 0,0
10.08.2018 20:00:00 20,3 7,4 20,0 18 10 29 16 ZZW 1019,1 44 0,0
10.08.2018 19:00:00 21,0 7,0 20,9 22 12 40 21 ZW 1019,6 45 0,0
10.08.2018 18:00:00 20,5 8,3 20,6 14 8 29 16 ZW 1019,9 47 0,0
10.08.2018 17:00:00 20,1 8,2 20,1 25 14 43 23 ZW 1020,3 48 0,0
10.08.2018 16:00:00 20,9 8,8 22,1 22 12 43 23 ZW 1020,7 33 0,0
10.08.2018 15:00:00 20,6 8,2 21,0 18 10 40 21 ZW 1020,6 42 0,0
10.08.2018 14:00:00 20,3 8,0 21,4 25 14 47 25 ZW 1020,6 39 0,0
10.08.2018 13:00:00 19,4 9,2 19,7 22 12 43 23 ZW 1020,6 36 0,0
10.08.2018 12:00:00 20,9 11,1 21,7 25 14 43 23 ZZW 1020,5 30 0,0
10.08.2018 11:00:00 18,6 11,8 19,5 25 14 43 23 ZZW 1020,4 30 0,0
10.08.2018 10:00:00 17,7 12,0 18,9 18 10 36 19 ZZW 1020,2 37 0,0
10.08.2018 09:00:00 15,6 12,1 16,2 18 10 36 19 ZZW 1020,0 36 0,0
10.08.2018 08:00:00 14,2 12,0 14,1 14 8 25 14 ZZW 1019,5 24 0,0
10.08.2018 07:00:00 13,1 11,6 12,3 14 8 29 16 ZZW 1018,9 33 0,0
10.08.2018 06:00:00 13,2 11,4 12,5 14 8 32 18 ZW 1018,0 46 0,0
10.08.2018 05:00:00 13,9 11,7 13,4 22 12 47 25 WZW 1017,2 50 0,2
10.08.2018 04:00:00 14,5 12,7 14,1 25 14 40 21 WZW 1016,1 30 0,0
10.08.2018 03:00:00 14,9 13,3 14,5 25 14 58 31 WZW 1015,0 50 0,4
10.08.2018 02:00:00 15,9 14,7 15,7 25 14 43 23 ZW 1013,1 24 0,3
10.08.2018 01:00:00 16,5 15,0 16,4 22 12 40 21 ZW 1011,8 8 0,1
10.08.2018 00:00:00 18,3 14,3 18,1 32 18 47 25 WZW 1010,2 42 0,0
09.08.2018 23:00:00 19,4 14,2 19,0 29 16 58 31 ZW 1009,3 47 0,0
09.08.2018 22:00:00 20,1 13,8 19,3 36 19 65 35 ZZW 1008,3 50 0,0
09.08.2018 21:00:00 21,6 17,2 21,3 32 18 58 31 ZZW 1006,7 46 0,0
09.08.2018 20:00:00 23,5 17,4 23,2 25 14 47 25 ZZW 1006,0 35 0,0
09.08.2018 19:00:00 23,5 18,0 23,3 25 14 50 27 ZZW 1006,2 20 0,0
09.08.2018 18:00:00 25,2 19,5 25,2 25 14 36 19 ZZW 1005,6 17 0,0
09.08.2018 17:00:00 23,1 20,4 23,3 7 4 18 10 O 1006,1 10 0,3
09.08.2018 16:00:00 23,5 19,1 23,5 14 8 25 14 NO 1006,6 14 0,0
09.08.2018 15:00:00 22,7 18,7 23,2 14 8 29 16 NO 1008,2 15 0,0
09.08.2018 14:00:00 21,7 18,4 22,4 18 10 22 12 NO 1009,9 13 9,0
09.08.2018 13:00:00 20,9 15,6 21,3 14 8 25 14 OZO 1011,8 7 1,0
09.08.2018 12:00:00 25,5 13,1 28,5 14 8 29 16 O 1012,2 39 0,0
09.08.2018 11:00:00 23,1 13,8 25,6 14 8 25 14 O 1012,9 29 0,0
09.08.2018 10:00:00 20,7 14,1 22,1 11 6 18 10 O 1014,3 28 0,0
09.08.2018 09:00:00 20,0 14,9 21,2 11 6 22 12 O 1014,4 21 0,0
09.08.2018 08:00:00 17,4 14,4 16,2 11 6 18 10 O 1014,8 16 0,0
09.08.2018 07:00:00 12,8 12,7 8,0 4 2 7 4 O 1015,5 3,4 0,0
09.08.2018 06:00:00 12,2 12,0 5,4 4 2 4 2 ONO 1015,1 1,2 0,0
09.08.2018 05:00:00 11,2 10,9 5,2 4 2 4 2 N 1015,0 2,7 0,0
09.08.2018 04:00:00 11,7 11,6 6,0 0 0 4 2 N 1015,4 0,2 0,0
09.08.2018 03:00:00 12,5 12,3 6,2 4 2 4 2 OZO 1015,9 4,1 0,0
09.08.2018 02:00:00 12,5 12,2 7,1 0 0 4 2 N 1015,8 2,5 0,0
09.08.2018 01:00:00 14,0 13,3 8,6 4 2 7 4 NNO 1015,8 11 0,0
09.08.2018 00:00:00 16,7 14,4 12,2 4 2 7 4 NO 1015,8 23 0,0
08.08.2018 23:00:00 18,9 14,1 17,7 4 2 18 10 N 1015,6 29 0,0
08.08.2018 22:00:00 19,9 13,0 18,1 7 4 14 8 WNW 1015,2 37 0,0
08.08.2018 21:00:00 21,6 13,2 20,9 11 6 18 10 W 1014,3 38 0,0
08.08.2018 20:00:00 22,1 13,8 21,7 7 4 22 12 WZW 1013,8 39 0,0
08.08.2018 19:00:00 23,4 13,7 24,7 11 6 25 14 ZW 1013,5 28 0,0
08.08.2018 18:00:00 22,6 13,8 22,8 18 10 29 16 WZW 1013,5 31 0,0
08.08.2018 17:00:00 23,1 14,6 23,4 22 12 32 18 WZW 1013,4 24 0,0

tt = temperatuur
td = dauwpunt
tt 5cm = temperatuur 5cm
ff = windsnelheid
fx = windstoten
dd = windrichting
ppp = luchtdruk
vv = zicht
rr = neerslag

Weerstations in de omgeving